SCP
0 0 0 0 0 0 0 0 0 0 0 0 0 0 0 0 0 0 0 0 0 0 0 0 0 0 0 0 0 0 0 0 0 0 0 0 0 0 0 0 0 0 0
0 0 0 0 0 0 0 0 0 0 0 0 0 0 0 0 0 0 0 0 0 0 0 0 0 0 0 0 0 0 0 0 0 0 0 0 0 0 0 0 0 0 0
0 0 0 0 0 0 0 0 0 0 0 0 0 0 0 0 0 0 0 0 0 0 0 0 0 0 0 0 0 0 0 0 0 0 0 0 0 0 0 0 0 0 0
0 0 0 0 0 0 0 0 0 0 0 0 0 0 0 0 0 0 0 0 0 0 0 0 0 0 0 0 0 0 0 0 0 0 0 0 0 0 0 0 0 0 0
0 0 0 0 0 0 0 0 0 0 0 0 0 0 0 0 0 0 0 0 0 0 0 0 0 0 0 0 0 0 0 0 0 0 0 0 0 0 0 0 0 0 0
0 0 0 0 0 0 0 0 0 0 0 0 0 0 0 0 0 0 0 0 0 0 0 0 0 0 0 0 0 0 0 0 0 0 0 0 0 0 0 0 0 0 0
0 0 0 0 0 0 0 0 0 0 0 0 0 0 0 0 0 0 0 0 0 0 0 0 0 0 0 0 0 0 0 0 0 0 0 0 0 0 0 0 0 0 0
0 0 0 0 0 0 0 0 0 0 0 0 0 0 0 0 0 0 0 0 0 0 0 0 0 0 0 0 0 0 0 0 0 0 0 0 0 0 0 0 0 0 0
0 0 0 0 0 0 0 0 0 0 0 0 0 0 0 0 0 0 0 0 0 0 0 0 0 0 0 0 0 0 0 0 0 0 0 0 0 0 0 0 0 0 0
0 0 0 0 0 0 0 0 0 0 0 0 0 0 0 0 0 0 0 0 0 0 0 0 0 0 0 0 0 0 0 0 0 0 0 0 0 0 0 0 0 0 0
0 0 0 0 0 0 0 0 0 0 0 0 0 0 0 0 0 0 0 0 0 0 0 0 0 0 0 0 0 0 0 0 0 0 0 0 0 0 0 0 0 0 0
0 0 0 0 0 0 0 0 0 0 0 0 0 0 0 0 0 0 0 0 0 0 0 0 0 0 0 0 0 0 0 0 0 0 0 0 0 0 0 0 0 0 0
0 0 0 0 0 0 0 0 0 0 0 0 0 0 0 0 0 0 0 0 0 0 0 0 0 0 0 0 0 0 0 0 0 0 0 0 0 0 0 0 0 0 0
0 0 0 0 0 0 0 0 0 0 0 0 0 0 0 0 0 0 0 0 0 0 0 0 0 0 0 0 0 0 0 0 0 0 0 0 0 0 0 0 0 0 0
0 0 0 0 0 0 0 0 0 0 0 0 0 0 0 0 0 0 0 0 0 0 0 0 0 0 0 0 0 0 0 0 0 0 0 0 0 0 0 0 0 0 0
0 0 0 0 0 0 0 0 0 0 0 0 0 0 0 0 0 0 0 0 0 0 0 0 0 0 0 0 0 0 0 0 0 0 0 0 0 0 0 0 0 0 0
0 0 0 0 0 -0 -0 -0 0 0 0 0 0 0 0 0 0 0 0 0 0 0 0 0 0 0 0 0 0 0 0 0 0 0 0 0 0 0 0 0 0 0 0
0 0 0 0 0 -0 -0 0 0 0 0 0 0 0 0 0 0 0 0 0 0 0 0 0 0 0 0 0 0 0 0 0 0 0 0 0 0 0 0 0 0 0 0
0 0 0 0 0 -0 -0 0 0 0 0 0 0 0 0 0 0 0 0 0 0 0 0 0 0 0 0 0 0 0 0 0 0 0 0 0 0 0 0 0 0 0 0
0 0 0 0 0 0 0 0 0 0 0 0 0 0 0 0 0 0 0 0 0 0 0 0 0 0 0 0 0 0 0 0 0 0 0 0 0 0 0 0 0 0 0
0 0 0 0 0 0 0 0 0 0 0 0 0 0 0 0 0 0 0 0 0 0 0 0 0 0 0 0 0 0 0 0 0 0 0 0 0 0 0 0 0 0 0
0 0 0 0 0 0 0 0 0 0 0 0 0 0 0 0 0 0 0 0 0 0 0 0 0 0 0 0 0 0 0 0 0 0 0 0 0 0 0 0 0 0 0
0 0 0 0 0 0 0 0 0 0 0 0 0 0 0 0 0 0 0 0 0 0 0 0 0 0 0 0 0 0 0 0 0 0 0 0 0 0 0 0 0 0 0
0 0 0 0 0 0 0 0 0 0 0 0 0 0 0 0 0 0 0 0 0 0 0 0 0 0 0 0 0 0 0 0 0 0 0 0 0 0 0 0 0 0 0
0 0 0 0 0 0 0 0 0 0 0 0 0 0 0 0 0 0 0 0 0 0 0 0 0 0 0 0 0 0 0 0 0 0 0 0 0 0 0 0 0 0 0
0 0 0 0 0 0 0 0 0 0 0 0 0 0 0 0 0 0 0 0 0 0 0 0 0 0 0 0 0 0 0 0 0 0 0 0 0 0 0 0 0 0 0
Wind_Speed
2 3 6 4 5 6 6 6 6 7 8 8 9 9 9 9 9 9 9 8 8 8 8 8 8 7 7 7 7 7 6 6 6 6 6 6 5 5 4 3 2 2 5
3 4 7 4 5 6 6 7 6 7 8 8 9 8 9 9 9 9 9 9 8 8 8 8 8 7 7 7 7 6 6 6 6 5 4 4 5 5 4 3 3 4 4
4 5 6 6 6 6 6 7 7 8 8 8 8 8 8 8 9 9 8 9 8 8 8 8 7 7 7 7 7 6 6 6 6 4 1 2 5 6 5 4 4 4 4
5 5 6 7 7 7 7 7 7 8 8 9 8 8 8 8 8 8 7 8 8 8 8 7 7 7 6 6 6 6 6 6 5 2 2 5 5 8 6 5 5 4 4
5 5 8 7 7 7 7 7 7 8 8 8 8 8 8 8 8 7 7 8 7 7 7 7 6 6 6 6 6 5 6 5 2 2 5 5 5 8 7 6 6 5 5
6 6 8 7 7 8 8 7 7 8 8 8 8 8 8 8 8 7 7 7 7 7 6 6 6 6 6 6 6 6 5 3 1 5 5 5 6 8 8 7 6 6 5
7 7 9 9 8 8 8 8 8 9 8 8 8 9 9 9 8 7 7 8 8 7 6 6 5 5 5 5 5 6 5 3 3 4 4 5 8 8 8 8 7 7 6
7 7 9 10 10 9 9 8 8 8 8 8 9 9 9 8 7 7 7 7 7 6 5 5 5 5 5 5 5 6 6 5 4 5 5 6 9 8 8 8 8 7 7
7 7 7 8 9 10 9 9 8 8 8 9 9 8 8 7 7 7 8 7 7 6 5 5 4 5 5 6 6 7 6 3 3 4 5 6 8 8 8 8 8 8 8
6 6 7 7 7 7 9 9 9 9 8 8 8 8 7 7 7 6 7 7 6 6 6 5 5 6 6 7 7 6 2 2 5 5 5 7 8 8 8 9 8 8 8
6 5 6 6 6 6 7 7 7 8 7 5 7 6 3 4 6 5 9 7 7 7 7 6 6 6 5 7 6 3 1 3 5 5 7 9 8 9 9 9 9 9 9
6 6 5 5 5 5 4 4 3 4 4 3 4 4 3 4 4 5 7 6 6 6 6 7 5 4 1 4 5 2 3 5 5 5 8 10 9 10 10 10 10 10 10
5 5 4 4 4 4 3 3 2 2 2 3 3 3 2 3 3 3 3 4 4 4 4 5 3 4 4 5 4 5 6 5 4 5 9 11 11 11 11 11 11 11 11
5 4 4 4 4 4 3 2 2 2 2 2 2 3 2 2 2 3 2 3 3 3 3 3 3 5 6 6 6 7 7 5 5 5 9 13 13 13 12 12 12 12 12
5 4 4 3 3 3 3 1 2 2 1 3 2 1 2 2 3 3 3 3 3 3 3 3 4 6 5 7 7 7 8 8 7 6 7 13 14 14 14 13 13 13 13
5 5 4 4 3 3 3 2 2 2 2 2 2 2 2 2 2 3 4 3 3 3 3 3 5 5 5 6 7 7 7 7 7 6 6 8 13 14 15 14 14 14 14
6 5 5 3 3 3 3 3 2 2 2 2 2 2 3 3 3 3 3 3 3 3 4 3 6 4 5 5 6 7 6 7 6 7 7 6 6 11 14 15 15 15 14
5 5 5 4 3 3 3 3 2 2 3 2 2 2 3 3 4 3 2 3 3 3 3 3 3 4 5 5 5 5 5 5 6 6 6 6 6 6 10 14 14 15 15
5 5 6 6 5 4 4 3 3 3 3 3 3 2 2 4 3 3 2 2 3 2 3 3 3 3 5 5 5 4 5 4 5 5 7 7 7 7 6 8 10 14 15
5 5 6 6 5 5 3 3 3 3 3 3 3 3 3 3 3 3 2 3 3 2 3 3 4 4 4 4 4 5 4 4 4 5 6 6 6 8 8 8 6 8 12
7 6 6 7 6 5 3 3 3 3 3 3 3 4 3 2 3 3 2 2 2 2 3 4 4 5 4 3 3 4 4 5 5 5 5 5 6 6 7 7 6 6 5
9 7 7 6 6 5 3 2 2 3 2 3 2 3 3 2 2 2 2 2 2 2 3 4 3 3 3 1 1 1 2 3 3 4 4 4 5 5 6 7 7 7 7
9 9 6 6 6 5 5 3 3 3 3 3 3 2 2 2 3 2 3 2 2 2 3 3 3 3 2 1 1 2 1 2 2 3 4 4 4 4 5 5 7 7 7
10 9 8 8 7 6 6 4 4 3 3 3 2 2 3 3 3 2 2 2 2 2 3 3 2 1 1 1 1 1 2 2 0 2 3 3 4 5 5 5 6 7 7
10 8 8 8 7 7 6 5 4 3 3 3 2 3 3 3 3 2 2 2 2 2 2 2 2 1 1 0 0 1 1 0 1 1 2 2 3 3 4 5 5 5 6
9 9 8 9 8 7 7 7 5 5 4 4 4 3 3 3 3 3 2 2 2 2 2 2 2 1 0 0 0 0 0 0 0 1 1 2 3 3 4 4 4 4 5
Wind_Direction
103 99 98 113 111 107 107 110 112 113 108 108 108 108 107 106 102 98 96 93 89 87 85 82 79 78 80 81 77 74 73 69 65 64 67 65 59 59 56 47 358 93 64
99 99 107 112 109 105 101 101 104 106 109 106 103 100 99 99 99 97 95 93 89 85 83 80 76 73 74 75 73 69 67 66 59 57 61 92 76 56 51 50 20 40 52
94 95 110 102 98 100 102 104 104 100 103 101 100 98 97 96 95 93 93 90 87 82 78 78 74 72 70 69 67 63 64 65 60 54 342 69 84 64 49 49 54 54 45
89 88 87 95 98 98 100 101 103 102 102 100 99 97 95 93 92 93 92 87 83 80 77 75 74 71 69 70 68 64 64 63 54 336 36 48 57 65 49 48 50 53 44
93 86 87 88 93 96 98 100 104 107 103 99 95 93 92 91 89 88 92 87 83 79 76 74 72 69 66 68 68 66 69 67 43 357 47 46 51 57 49 49 49 48 44
97 87 87 82 87 93 95 100 104 105 100 97 96 93 91 88 87 89 87 86 83 77 75 75 72 71 67 66 66 65 67 52 314 51 46 46 55 53 46 47 44 41 36
92 85 87 80 82 84 90 91 95 99 98 97 95 92 90 86 84 83 84 87 87 83 80 76 73 71 67 66 67 71 65 359 38 57 54 53 54 46 42 41 38 33 28
97 96 100 95 82 79 81 86 93 95 95 94 90 89 89 87 85 85 84 85 85 84 79 75 75 72 67 63 67 71 58 341 62 53 60 59 51 42 42 39 35 33 26
100 97 96 101 101 94 84 83 92 94 92 89 86 85 87 88 86 85 84 82 83 82 77 75 76 77 72 66 70 74 68 360 39 52 55 57 46 41 41 37 35 31 27
104 98 95 92 90 96 96 81 79 83 84 85 84 82 91 107 103 98 100 82 78 77 74 76 77 77 76 72 72 73 72 249 54 59 49 57 46 45 44 40 37 33 29
113 105 97 96 92 86 84 90 97 95 90 111 110 103 143 117 105 115 74 75 74 73 72 74 78 82 92 93 77 75 264 64 66 55 52 46 46 49 46 41 38 35 29
124 113 108 103 101 94 85 92 96 95 91 75 73 82 81 79 78 77 98 82 79 85 91 79 89 124 174 102 110 176 70 68 64 63 57 41 45 47 46 43 40 35 30
121 119 119 119 110 104 101 83 80 83 85 79 68 82 81 97 112 101 108 118 108 117 100 108 133 83 77 68 64 69 60 59 58 57 55 43 46 48 47 44 43 37 33
134 123 117 122 125 114 103 92 101 93 84 77 77 72 85 86 91 90 91 85 95 90 79 83 77 78 78 82 76 72 71 60 56 64 58 47 46 46 46 45 42 40 37
145 142 125 123 114 106 98 108 128 107 97 98 81 82 89 97 94 102 100 94 90 90 99 88 91 88 81 75 70 67 67 64 56 58 70 56 47 45 43 43 41 41 39
157 150 139 145 127 123 124 120 98 100 111 93 98 102 99 99 99 102 103 100 95 91 88 101 98 94 84 79 75 69 64 67 61 60 63 72 61 48 41 40 41 40 39
157 155 143 144 132 123 99 84 90 95 91 89 92 105 105 95 105 113 103 109 111 110 108 96 96 97 95 90 80 70 64 57 59 57 55 48 63 63 49 39 39 38 38
162 149 139 144 137 118 107 106 101 96 88 90 92 83 98 106 104 103 102 104 114 116 112 105 107 102 97 87 77 67 69 62 58 54 55 53 45 48 60 46 41 37 35
164 154 148 142 137 124 115 117 104 96 88 92 94 84 85 91 102 107 93 107 117 120 118 116 106 106 101 94 90 78 69 62 53 51 54 54 53 45 47 62 55 43 35
168 166 150 135 142 133 138 131 118 101 94 89 90 88 74 77 82 94 112 122 122 132 125 120 111 100 97 99 94 86 75 71 61 53 51 55 50 47 40 37 45 57 45
175 174 159 156 154 153 153 154 142 125 119 106 83 76 84 84 90 92 105 104 123 127 135 138 131 128 121 124 125 115 99 75 65 61 50 47 55 49 46 40 37 32 49
179 181 174 163 162 165 162 151 141 130 117 98 104 95 81 81 81 89 98 112 126 127 139 137 148 141 129 175 260 175 148 128 84 63 63 52 46 50 44 43 42 38 34
183 185 177 167 167 167 161 151 149 139 145 139 123 99 73 70 75 74 84 95 113 136 141 153 162 159 159 156 358 330 329 77 108 90 62 61 52 48 46 41 41 42 42
183 180 177 173 171 164 167 171 166 164 154 134 128 120 115 94 83 67 78 92 117 120 139 150 142 166 185 184 129 11 0 26 294 126 109 78 60 52 46 42 42 44 43
175 176 176 170 169 168 176 168 178 171 155 142 142 133 127 106 95 89 83 98 107 113 126 136 143 197 189 248 130 125 86 123 301 22 103 102 88 66 50 41 43 42 43
172 173 171 171 171 168 177 179 183 171 169 160 160 149 147 133 122 108 99 98 105 108 116 126 139 143 125 63 296 280 259 315 63 58 101 107 91 79 64 50 46 46 47